When you browse on this site, cookies collect data to enhance your experience and personalize the content and advertising you see.
Visit our Privacy Policy to learn more. By continuing to use the site, you agree to this use of cookies and data.
  • In Hungary
  • List of Countries
  • For 7 days
  • Water Temperature
  • Satellite Maps
  • Weather Map
  • News
  • Weather Widgets
  • user-avatar
    Login

    Hourly Weather Mansa

    Today, 20 April, Saturday

    Time Temperature Precipitation Wind Pressure Humidity
    00:00 +19°C° 0 mm 2 mps 661 mmHg 96%
    01:00 +19°C° 0 mm 2 mps 660 mmHg 96%
    02:00 +19°C° 0 mm 2 mps 660 mmHg 97%
    03:00 +19°C° 0 mm 2 mps 660 mmHg 97%
    04:00 +18°C° 0 mm 2 mps 660 mmHg 97%
    05:00 +18°C° 0 mm 2 mps 660 mmHg 97%
    06:00 +19°C° 0 mm 3 mps 660 mmHg 94%
    07:00 +20°C° 0 mm 3 mps 661 mmHg 91%
    08:00 +21°C° 0 mm 4 mps 662 mmHg 88%
    09:00 +21°C° 0 mm 4 mps 662 mmHg 85%
    10:00 +22°C° 0 mm 3 mps 662 mmHg 81%
    11:00 +24°C° 0 mm 3 mps 662 mmHg 77%
    12:00 +25°C° 0 mm 3 mps 661 mmHg 74%
    13:00 +26°C° 0 mm 3 mps 661 mmHg 72%
    14:00 +27°C° 0 mm 3 mps 660 mmHg 69%
    15:00 +26°C° 0.2 mm 2 mps 660 mmHg 73%
    16:00 +26°C° 0.2 mm 2 mps 659 mmHg 77%
    17:00 +26°C° 0.2 mm 2 mps 659 mmHg 81%
    18:00 +24°C° 0.1 mm 2 mps 659 mmHg 86%
    19:00 +23°C° 0.1 mm 2 mps 659 mmHg 90%
    20:00 +20°C° 0.1 mm 2 mps 660 mmHg 94%
    21:00 +20°C° 0 mm 2 mps 660 mmHg 94%
    22:00 +20°C° 0 mm 2 mps 660 mmHg 94%
    23:00 +19°C° 0 mm 2 mps 660 mmHg 93%

    Tomorrow, 21 April, Sunday

    Time Temperature Precipitation Wind Pressure Humidity
    00:00 +19°C° 0 mm 2 mps 660 mmHg 94%
    01:00 +19°C° 0 mm 2 mps 660 mmHg 95%
    02:00 +18°C° 0 mm 2 mps 660 mmHg 96%
    03:00 +18°C° 0 mm 2 mps 659 mmHg 96%
    04:00 +18°C° 0 mm 2 mps 659 mmHg 96%
    05:00 +18°C° 0 mm 2 mps 659 mmHg 97%
    06:00 +18°C° 0 mm 2 mps 660 mmHg 94%
    07:00 +19°C° 0 mm 2 mps 660 mmHg 91%
    08:00 +20°C° 0 mm 3 mps 661 mmHg 88%
    09:00 +22°C° 0 mm 3 mps 661 mmHg 81%
    10:00 +25°C° 0 mm 3 mps 661 mmHg 75%
    11:00 +26°C° 0 mm 3 mps 662 mmHg 68%
    12:00 +27°C° 0 mm 2 mps 661 mmHg 66%
    13:00 +28°C° 0 mm 2 mps 660 mmHg 64%
    14:00 +28°C° 0 mm 2 mps 659 mmHg 62%
    15:00 +28°C° 0 mm 2 mps 659 mmHg 67%
    16:00 +27°C° 0 mm 2 mps 658 mmHg 71%
    17:00 +27°C° 0 mm 1 mps 658 mmHg 76%
    18:00 +25°C° 0 mm 1 mps 658 mmHg 79%
    19:00 +24°C° 0 mm 1 mps 658 mmHg 82%
    20:00 +22°C° 0 mm 1 mps 658 mmHg 85%
    21:00 +22°C° 0 mm 1 mps 659 mmHg 86%
    22:00 +21°C° 0 mm 1 mps 659 mmHg 87%
    23:00 +20°C° 0 mm 2 mps 659 mmHg 88%

    Day after tomorrow, 22 April, Monday

    Time Temperature Precipitation Wind Pressure Humidity
    00:00 +19°C° 0.2 mm 2 mps 659 mmHg 90%
    01:00 +19°C° 0.2 mm 2 mps 658 mmHg 92%
    02:00 +18°C° 0.2 mm 2 mps 658 mmHg 95%
    03:00 +18°C° 0 mm 2 mps 658 mmHg 95%
    04:00 +18°C° 0 mm 2 mps 658 mmHg 94%
    05:00 +17°C° 0 mm 2 mps 658 mmHg 94%
    06:00 +18°C° 0 mm 2 mps 659 mmHg 92%
    07:00 +19°C° 0 mm 2 mps 659 mmHg 89%
    08:00 +20°C° 0 mm 3 mps 660 mmHg 86%
    09:00 +22°C° 0 mm 3 mps 660 mmHg 81%
    10:00 +25°C° 0 mm 2 mps 661 mmHg 75%
    11:00 +26°C° 0 mm 2 mps 661 mmHg 70%
    12:00 +27°C° 0.1 mm 2 mps 660 mmHg 67%
    13:00 +28°C° 0.1 mm 2 mps 660 mmHg 65%
    14:00 +28°C° 0.1 mm 2 mps 659 mmHg 63%
    15:00 +28°C° 0.2 mm 2 mps 659 mmHg 67%
    16:00 +27°C° 0.2 mm 2 mps 658 mmHg 71%
    17:00 +27°C° 0.2 mm 1 mps 658 mmHg 75%
    18:00 +25°C° 0 mm 1 mps 658 mmHg 78%
    19:00 +23°C° 0 mm 1 mps 659 mmHg 82%
    20:00 +22°C° 0 mm 1 mps 659 mmHg 85%
    21:00 +21°C° 0.1 mm 1 mps 659 mmHg 87%
    22:00 +21°C° 0.1 mm 1 mps 659 mmHg 88%
    23:00 +21°C° 0.1 mm 1 mps 659 mmHg 89%

    23 April, Tuesday

    Time Temperature Precipitation Wind Pressure Humidity
    00:00 +20°C° 0.8 mm 1 mps 659 mmHg 91%
    01:00 +19°C° 0.8 mm 2 mps 659 mmHg 93%
    02:00 +19°C° 0.8 mm 2 mps 658 mmHg 95%
    03:00 +19°C° 0.1 mm 2 mps 658 mmHg 94%
    04:00 +18°C° 0.1 mm 2 mps 659 mmHg 94%
    05:00 +18°C° 0.1 mm 2 mps 659 mmHg 94%
    06:00 +19°C° 0 mm 2 mps 659 mmHg 92%
    07:00 +19°C° 0 mm 2 mps 660 mmHg 90%
    08:00 +20°C° 0 mm 2 mps 661 mmHg 88%
    09:00 +23°C° 0 mm 2 mps 661 mmHg 81%
    10:00 +25°C° 0 mm 2 mps 661 mmHg 75%
    11:00 +27°C° 0 mm 2 mps 662 mmHg 69%
    12:00 +27°C° 0.5 mm 2 mps 661 mmHg 68%
    13:00 +27°C° 0.5 mm 2 mps 660 mmHg 67%
    14:00 +28°C° 0.5 mm 2 mps 660 mmHg 67%
    15:00 +27°C° 0.3 mm 2 mps 659 mmHg 70%
    16:00 +27°C° 0.3 mm 1 mps 659 mmHg 74%
    17:00 +26°C° 0.3 mm 1 mps 659 mmHg 77%
    18:00 +25°C° 0 mm 1 mps 659 mmHg 80%
    19:00 +23°C° 0 mm 1 mps 660 mmHg 84%
    20:00 +22°C° 0 mm 1 mps 660 mmHg 87%
    21:00 +22°C° 0 mm 1 mps 660 mmHg 88%
    22:00 +22°C° 0 mm 1 mps 660 mmHg 88%
    23:00 +21°C° 0 mm 1 mps 661 mmHg 89%

    24 April, Wednesday

    Time Temperature Precipitation Wind Pressure Humidity
    00:00 +21°C° 0 mm 1 mps 660 mmHg 90%
    01:00 +21°C° 0 mm 1 mps 660 mmHg 92%
    02:00 +19°C° 0 mm 2 mps 660 mmHg 93%
    03:00 +19°C° 0 mm 2 mps 660 mmHg 92%
    04:00 +19°C° 0 mm 2 mps 660 mmHg 91%
    05:00 +19°C° 0 mm 2 mps 660 mmHg 90%
    06:00 +19°C° 0 mm 2 mps 660 mmHg 88%
    07:00 +20°C° 0 mm 3 mps 661 mmHg 86%
    08:00 +20°C° 0 mm 3 mps 661 mmHg 84%
    09:00 +22°C° 0 mm 3 mps 662 mmHg 80%
    10:00 +24°C° 0 mm 3 mps 662 mmHg 75%
    11:00 +25°C° 0 mm 3 mps 662 mmHg 71%
    12:00 +26°C° 0 mm 3 mps 661 mmHg 70%
    13:00 +26°C° 0 mm 2 mps 660 mmHg 68%
    14:00 +27°C° 0 mm 2 mps 660 mmHg 66%
    15:00 +26°C° 0 mm 2 mps 659 mmHg 70%
    16:00 +26°C° 0 mm 1 mps 659 mmHg 74%
    17:00 +25°C° 0 mm 1 mps 659 mmHg 78%
    18:00 +24°C° 0 mm 1 mps 659 mmHg 80%
    19:00 +23°C° 0 mm 1 mps 660 mmHg 83%
    20:00 +22°C° 0 mm 1 mps 660 mmHg 85%
    21:00 +21°C° 0 mm 1 mps 660 mmHg 86%
    22:00 +21°C° 0 mm 1 mps 660 mmHg 86%
    23:00 +21°C° 0 mm 1 mps 660 mmHg 86%

    25 April, Thursday

    Time Temperature Precipitation Wind Pressure Humidity
    00:00 +20°C° 0 mm 1 mps 660 mmHg 88%
    01:00 +20°C° 0 mm 1 mps 660 mmHg 90%
    02:00 +19°C° 0 mm 1 mps 659 mmHg 92%
    03:00 +18°C° 0 mm 2 mps 659 mmHg 92%
    04:00 +18°C° 0 mm 2 mps 659 mmHg 91%
    05:00 +18°C° 0 mm 2 mps 660 mmHg 90%
    06:00 +19°C° 0 mm 2 mps 660 mmHg 87%
    07:00 +19°C° 0 mm 3 mps 661 mmHg 84%
    08:00 +20°C° 0 mm 3 mps 661 mmHg 81%
    09:00 +22°C° 0 mm 3 mps 662 mmHg 75%
    10:00 +25°C° 0 mm 3 mps 662 mmHg 70%
    11:00 +27°C° 0 mm 3 mps 662 mmHg 64%
    12:00 +27°C° 0 mm 3 mps 661 mmHg 62%
    13:00 +28°C° 0 mm 2 mps 661 mmHg 60%
    14:00 +28°C° 0 mm 2 mps 660 mmHg 58%
    15:00 +28°C° 0 mm 2 mps 660 mmHg 62%
    16:00 +27°C° 0 mm 2 mps 659 mmHg 66%
    17:00 +27°C° 0 mm 1 mps 659 mmHg 71%
    18:00 +25°C° 0 mm 1 mps 659 mmHg 74%
    19:00 +23°C° 0 mm 1 mps 659 mmHg 78%
    20:00 +20°C° 0 mm 0 mps 659 mmHg 82%
    21:00 +21°C° 0 mm 1 mps 659 mmHg 83%
    22:00 +21°C° 0 mm 1 mps 659 mmHg 84%
    23:00 +21°C° 0 mm 1 mps 660 mmHg 85%
    Show more